Tyler, TX

4:45 AM CDT on June 23, 2017 (GMT -0500)
Tyler Pounds

Weather History for KTYR - December, 2012

Change the Weather History Date:

Saturday, December 15, 2012

  Actual Average Record
Temperature  
Mean Temperature 64 °F 48 °F  
Max Temperature 70 °F 57 °F 79 °F (1975)
Min Temperature 57 °F 39 °F 14 °F (1958)
Degree Days  
Heating Degree Days 1 17  
Month to date heating degree days 123 242  
Since 1 July heating degree days 445 616  
Cooling Degree Days 0 0  
Month to date cooling degree days 25 0  
Year to date cooling degree days 3023 2411  
Growing Degree Days 13 (Base 50)    
Moisture  
Dew Point 54 °F    
Average Humidity 62    
Maximum Humidity 93    
Minimum Humidity 31    
Precipitation  
Precipitation 0.38 in 0.14 in 3.31 in (1992)
Month to date precipitation 1.02 1.98  
Year to date precipitation 32.85 43.53  
Snow  
Snow 0.00 in - - ()
Month to date snowfall 0.0  
Since 1 July snowfall 0.0  
Snow Depth 0.00 in    
Sea Level Pressure  
Sea Level Pressure 29.90 in    
Wind  
Wind Speed 7 mph (SSW)    
Max Wind Speed 17 mph    
Max Gust Speed 24 mph    
Visibility 7 miles    
Events Rain , Thunderstorm    
T = Trace of Precipitation, MM = Missing Value Source: NWS Daily Summary

Daily Weather History Graph

Daily Weather History Graph

Search for Another Location

Airport or City:

Trip Planner

Search our weather history database for the weather conditions in past years. The results will help you decide how hot, cold, wet, or windy it might be!

Date:

Astronomy

Dec. 15, 2012 Rise Set
Actual Time 7:15 AM CST 5:18 PM CST
Civil Twilight 6:48 AM CST 5:45 PM CST
Nautical Twilight 6:18 AM CST 6:16 PM CST
Astronomical Twilight 5:48 AM CST 6:46 PM CST
Moon 9:15 AM CST (12/15) 8:16 PM CST (12/15)
Length of Visible Light 10h 56m
Length of Day
10h 02m
Waxing Crescent, 8% of the Moon is Illuminated
Dec 15
Waxing Crescent
Dec 19
First Quarter
Dec 28
Full
Jan 4
Last Quarter
Jan 11
New

Hourly Weather History & Observations

Time (CST) Temp. Dew Point Humidity Pressure Visibility Wind Dir Wind Speed Gust Speed Precip Events Conditions
12:04 AM 57.2 °F 55.4 °F 94% 29.92 in 3.0 mi SSE 10.4 mph - 0.00 in Rain Light Rain
12:12 AM 57.2 °F 55.4 °F 94% 29.92 in 3.0 mi SSE 10.4 mph - 0.00 in Rain Light Rain
12:53 AM 57.9 °F 55.9 °F 93% 29.92 in 3.0 mi South 6.9 mph - 0.00 in   Overcast
1:22 AM 59.0 °F 57.2 °F 94% 29.90 in 2.5 mi SSE 12.7 mph - 0.02 in Rain Light Rain
1:31 AM 60.8 °F 59.0 °F 94% 29.89 in 4.0 mi SSE 13.8 mph - 0.02 in Rain Light Rain
1:53 AM 62.1 °F 60.1 °F 93% 29.88 in 6.0 mi South 13.8 mph 23.0 mph 0.02 in   Overcast
2:53 AM 63.0 °F 61.0 °F 93% 29.88 in 8.0 mi South 12.7 mph - N/A   Overcast
3:49 AM 64.4 °F 60.8 °F 88% 29.90 in 2.0 mi WSW 8.1 mph 24.2 mph 0.20 in Rain Heavy Rain
3:53 AM 64.0 °F 62.1 °F 93% 29.90 in 2.0 mi WSW 6.9 mph - 0.25 in Rain Heavy Rain
4:09 AM 64.4 °F 62.6 °F 94% 29.90 in 3.0 mi WSW 4.6 mph - 0.08 in Rain Rain
4:12 AM 62.6 °F 62.6 °F 100% 29.91 in 2.5 mi WSW 5.8 mph - 0.09 in Rain , Thunderstorm Heavy Rain
4:19 AM 64.4 °F 62.6 °F 94% 29.90 in 4.0 mi SW 5.8 mph - 0.10 in Rain , Thunderstorm Light Rain
4:33 AM 62.6 °F 60.8 °F 94% 29.90 in 10.0 mi SSW 6.9 mph - 0.10 in Rain Light Rain
4:53 AM 63.0 °F 61.0 °F 93% 29.89 in 8.0 mi SSW 8.1 mph - 0.11 in Rain Light Rain
5:02 AM 62.6 °F 60.8 °F 94% 29.90 in 9.0 mi SSW 9.2 mph - 0.00 in   Overcast
5:13 AM 62.6 °F 60.8 °F 94% 29.90 in 9.0 mi SW 6.9 mph - 0.00 in   Overcast
5:48 AM 62.6 °F 60.8 °F 94% 29.90 in 7.0 mi SW 5.8 mph - 0.00 in   Overcast
5:53 AM 63.0 °F 61.0 °F 93% 29.89 in 6.0 mi SW 5.8 mph - 0.00 in   Overcast
6:53 AM 63.0 °F 61.0 °F 93% 29.92 in 5.0 mi SW 5.8 mph - N/A   Overcast
7:10 AM 62.6 °F 60.8 °F 94% 29.93 in 5.0 mi SW 5.8 mph - N/A   Overcast
7:53 AM 62.1 °F 61.0 °F 96% 29.94 in 7.0 mi SW 5.8 mph - N/A   Mostly Cloudy
8:04 AM 62.6 °F 60.8 °F 94% 29.95 in 10.0 mi SW 6.9 mph - N/A   Mostly Cloudy
8:53 AM 62.1 °F 60.1 °F 93% 29.95 in 10.0 mi SSW 5.8 mph - N/A   Clear
9:53 AM 64.9 °F 53.1 °F 65% 29.94 in 10.0 mi West 4.6 mph - N/A   Clear
10:53 AM 66.9 °F 53.1 °F 61% 29.95 in 10.0 mi WSW 11.5 mph - N/A   Clear
11:53 AM 68.0 °F 42.1 °F 39% 29.92 in 10.0 mi SW 8.1 mph - N/A   Clear
12:53 PM 68.0 °F 39.0 °F 35% 29.88 in 10.0 mi WSW 8.1 mph - N/A   Clear
1:53 PM 69.1 °F 41.0 °F 36% 29.87 in 10.0 mi SW 8.1 mph - N/A   Clear
2:53 PM 69.1 °F 37.9 °F 32% 29.86 in 10.0 mi SW 6.9 mph - N/A   Clear
3:53 PM 68.0 °F 39.9 °F 36% 29.86 in 10.0 mi SSW 8.1 mph - N/A   Overcast
4:53 PM 63.0 °F 43.0 °F 48% 29.86 in 10.0 mi SSW 5.8 mph - N/A   Clear
5:53 PM 62.1 °F 41.0 °F 46% 29.86 in 10.0 mi SSW 5.8 mph - N/A   Clear
6:53 PM 59.0 °F 42.1 °F 53% 29.86 in 10.0 mi South 5.8 mph - N/A   Clear
7:53 PM 61.0 °F 43.0 °F 52% 29.86 in 10.0 mi SSW 6.9 mph - N/A   Clear
8:53 PM 61.0 °F 43.0 °F 52% 29.86 in 10.0 mi SSW 4.6 mph - N/A   Clear
9:53 PM 60.1 °F 44.1 °F 55% 29.86 in 10.0 mi SSW 5.8 mph - N/A   Clear
10:53 PM 59.0 °F 44.1 °F 58% 29.86 in 10.0 mi South 8.1 mph - N/A   Clear
11:53 PM 57.9 °F 45.0 °F 62% 29.86 in 10.0 mi SSW 4.6 mph - N/A   Clear